Regional Weather Roundup
Issued by NWS Cleveland, OH

Home | Current Version | Previous Version | Text Only | Print | Product List | Glossary Off
Versions: 1 2 3 4 5 6 7 8 9 10 11 12 13 14 15 16 17 18 19 20 21 22 23 24 25 26 27 28 29 30 31 32 33 34 35 36 37 38 39 40 41 42 43 44 45 46 47 48 49 50

000
ASUS41 KCLE 011900
RWRCLE
OHIO REGIONAL WEATHER ROUNDUP
NATIONAL WEATHER SERVICE WILMINGTON, OH
300 PM EDT SAT AUG 01 2015

NOTE: "FAIR" INDICATES FEW OR NO CLOUDS BELOW 12,000 FEET WITH NO
SIGNIFICANT WEATHER AND/OR OBSTRUCTIONS TO VISIBILITY.

OHZ001>008-015>018-024>027-034-035-043-044-012000-
   NORTHWEST OHIO

CITY           SKY/WX    TMP DP  RH WIND       PRES   REMARKS
DEFIANCE       MOSUNNY   84  51  31 W9G20     29.95F
FINDLAY        PTSUNNY   82  54  37 W16G23    29.95F
TOLEDO EXPRESS MOSUNNY   81  54  39 NW14      29.93F
TOLEDO EXEC    CLOUDY    81  52  36 NW16      29.94F
LIMA           MOSUNNY   80  53  39 W14       29.97F
$$

OHZ009>014-019>023-028>033-038-089-012000-
   NORTHEAST OHIO

CITY           SKY/WX    TMP DP  RH WIND       PRES   REMARKS
CLE-HOPKINS    MOSUNNY   81  53  37 NW12G23   29.95F
CLE-LAKEFRONT  SUNNY     80  60  50 W12       29.92F
CUY CO. ARPT   MOSUNNY   79  54  41 NW16      29.94S
LORAIN-ELYRIA  SUNNY     80  56  43 NW10      29.95S
ASHTABULA      SUNNY     79  51  37 W14G21    29.93S
AKRON-CANTON   PTSUNNY   81  53  37 W10       29.94S
WOOSTER        NOT AVBL
MANSFIELD      MOSUNNY   80  53  39 W12       29.97S
YOUNGSTOWN     PTSUNNY   80  55  42 W10       29.93S
$$

OHZ042-051>053-060>062-070>072-077>081-012000-
  SOUTHWEST OHIO

CITY           SKY/WX    TMP DP  RH WIND       PRES   REMARKS
CINC-COVINGTON MOSUNNY   83  56  39 NW10G16   30.00F
CINC-LUNKEN    SUNNY     83  55  38 NW12      29.99S
HAMILTON       MOSUNNY   83  56  39 NW9       30.00F
DAYTON         NOT AVBL
WRIGHT-PAT AFB NOT AVBL
DAYTON GENERAL SUNNY     81  53  37 W9        29.99F
WILMINGTON     MOSUNNY   82  53  36 W9        29.99F
$$

OHZ036-037-039>041-045>050-054>059-063>069-073>076-082>088-012000-
  CENTRAL AND SOUTHEAST OHIO

CITY           SKY/WX    TMP DP  RH WIND       PRES   REMARKS
COLUMBUS       MOSUNNY   80  53  39 NW10G17   29.96F
OSU AIRPORT    MOSUNNY   80  56  43 W13       29.97F
BOLTON FIELD   MOSUNNY   81  57  44 W8        29.98F
RICKENBACK AFB NOT AVBL
NEWARK         SUNNY     84  55  36 W9        29.96F
MARION         MOSUNNY   82  52  35 NW14      29.97F
LANCASTER      PTSUNNY   80  55  42 W8        29.97F
ZANESVILLE     MOSUNNY   82  52  35 W9G17     29.96F
NEW PHILLY     MOSUNNY   77  54  44 NW7       29.95S
$$


USA.gov is the U.S. government's official web portal to all federal, state and local government web resources and services.